This is the latest recevied weather packets stored in our database for station/object NA9VY-8. If no packets are shown the sender has not sent any weather packets the latest 10 day(s).
| Time | Temp. | Humidity | Pressure | Rain* | Wind** | Luminosity | Snow |
|---|---|---|---|---|---|---|---|
| 1777849520 | 16.67° C | 53% | 1015.8 hPa | 0 mm | - | 55 W/m² | - |
| 1777849218 | 16.67° C | 50% | 1015.9 hPa | 0 mm | - | 69 W/m² | - |
| 1777848915 | 16.67° C | 51% | 1015.8 hPa | 0 mm | - | 92 W/m² | - |
| 1777848609 | 16.67° C | 52% | 1016 hPa | 0 mm | - | 97 W/m² | - |
| 1777848308 | 16.67° C | 50% | 1015.9 hPa | 0 mm | - | 111 W/m² | - |
| 1777848005 | 16.67° C | 49% | 1015.5 hPa | 0 mm | - | 102 W/m² | - |
| 1777847703 | 16.67° C | 52% | 1016 hPa | 0 mm | - | 91 W/m² | - |
| 1777847398 | 16.67° C | 51% | 1016.2 hPa | 0 mm | - | 103 W/m² | - |
| 1777847097 | 16.67° C | 49% | 1016.4 hPa | 0 mm | - | 61 W/m² | - |
| 1777846794 | 16.67° C | 49% | 1016.8 hPa | 0 mm | - | 119 W/m² | - |
| 1777846492 | 16.67° C | 48% | 1017.2 hPa | 0 mm | - | 154 W/m² | - |
| 1777846189 | 16.67° C | 49% | 1017.3 hPa | 0 mm | - | 138 W/m² | - |
| 1777845885 | 16.67° C | 51% | 1017.2 hPa | 0 mm | - | 148 W/m² | - |
| 1777845582 | 16.67° C | 48% | 1017.3 hPa | 0 mm | - | 171 W/m² | - |
| 1777845279 | 16.67° C | 48% | 1017 hPa | 0 mm | - | 165 W/m² | - |
| 1777844977 | 16.67° C | 49% | 1017.3 hPa | 0 mm | - | 146 W/m² | - |
| 1777844675 | 16.67° C | 48% | 1017.4 hPa | 0 mm | - | 102 W/m² | - |
| 1777844372 | 16.67° C | 48% | 1017.5 hPa | 0 mm | - | 114 W/m² | - |
| 1777844070 | 16.67° C | 48% | 1017.5 hPa | 0 mm | - | 124 W/m² | - |
| 1777843766 | 16.67° C | 47% | 1017.8 hPa | 0 mm | - | 133 W/m² | - |
| 1777843464 | 16.11° C | 50% | 1017.8 hPa | 0 mm | - | 133 W/m² | - |
| 1777843161 | 16.67° C | 47% | 1018.1 hPa | 0 mm | - | 117 W/m² | - |
| 1777842857 | 16.67° C | 47% | 1018.3 hPa | 0 mm | - | 273 W/m² | - |
| 1777842553 | 16.67° C | 49% | 1018.4 hPa | 0 mm | - | 139 W/m² | - |
| 1777842251 | 16.67° C | 49% | 1018.6 hPa | 0 mm | - | 146 W/m² | - |
* Rain latest hour (hover to see other rain measurements)
** Current wind speed in m/s (hover to see current wind gust speed)